Regional Weather Roundup
Issued by NWS State College, PA

Home | Current Version | Previous Version | Text Only | Print | Product List | Glossary Off
Versions: 1 2 3 4 5 6 7 8 9 10 11 12 13 14 15 16 17 18 19 20 21 22 23 24 25 26 27 28 29 30 31 32 33 34 35 36 37 38 39 40 41 42 43 44 45 46 47 48 49 50

000
ASUS41 KCTP 212203
RWRCTP

REGIONAL WEATHER ROUNDUP
NATIONAL WEATHER SERVICE STATE COLLEGE PA
500 PM EST WED FEB 21 2018

Note: "fair" indicates few or no clouds below 12,000 feet with no
significant weather and/or obstructions to visibility.

* = STATION THAT DOES NOT REPORT PRECIPITATION /E.G. RAIN...SNOW...ETC/
    THUNDER OR FOG.

PAZ002>004-007>009-013>016-020>023-029>032-212300-
WESTERN PENNSYLVANIA

CITY           SKY/WX    TMP DP  RH WIND       PRES   REMARKS
ERIE           CLOUDY    35  31  85 N5        30.51S
MEADVILLE      LGT RAIN  35  34  96 N10       30.47R
FRANKLIN*      LGT RAIN  39  37  92 N6        30.44R
NEW CASTLE     LGT RAIN  41  39  93 N8        30.47R
BEAVER COUNTY  CLOUDY    41  37  87 N8        30.43R
BUTLER*        CLOUDY    43  40  89 VRB7      30.41R
PITTSBURGH INT CLOUDY    46  41  82 N13       30.41R
PITTSBURGH     CLOUDY    47  43  86 N10       30.39R
INDIANA*       CLOUDY    52  52 100 N5        30.41R FOG
LATROBE        CLOUDY    55  55 100 E6        30.38R
WASHINGTON CO* CLOUDY    46  44  93 N10       30.42R
$$

PAZ004>006-010>012-017>019-024>028-033>037-041-042-045-046-049>053-212300-
CENTRAL PENNSYLVANIA

CITY           SKY/WX    TMP DP  RH WIND       PRES   REMARKS
BRADFORD       CLOUDY    41  40  96 N8        30.40R
DUBOIS         CLOUDY    47  44  90 N10       30.38R
CLEARFIELD     LGT RAIN  55  52  89 NW10      30.36R
JOHNSTOWN      LGT RAIN  54  51  90 NW8       30.36R
ALTOONA        MOCLDY    61  51  70 N15       30.34R
STATE COLLEGE  CLOUDY    63  52  67 W8        30.32R
WILLIAMSPORT   CLOUDY    65  53  65 NW12      30.29R
SELINSGROVE    CLOUDY    70  55  59 N14       30.26R
FT INDIANTOWN  MOCLDY    75  57  54 SW5       30.22R
CAPITAL CITY   CLOUDY    77  62  59 SW5       30.22R
HARRISBURG     MOCLDY    75  57  53 SW5       30.21R
YORK           LGT RAIN  75  62  64 SW8       30.23R
$$

PAZ038>040-043-044-047-048-054-055-060>062-067>071-212300-
EASTERN PENNSYLVANIA

CITY           SKY/WX    TMP DP  RH WIND       PRES   REMARKS
SCRANTON       LGT RAIN  60  52  74 VRB3      30.31R
MOUNT POCONO   CLOUDY    68  55  63 W14G28    30.26R
ALLENTOWN      MOCLDY    78  57  48 SW9       30.21S
QUAKERTOWN*    PTCLDY    75  63  64 S6        30.23S
READING        FAIR      79  59  50 SW9       30.20S
LANCASTER      CLOUDY    79  58  48 SW8       30.22R
COATESVILLE    FAIR      73 -35   1 S8G14     30.26S
POTTSTOWN      FAIR      75  60  59 S9        30.24S
BLUE BELL      MOCLDY    73  61  64 S10G16    30.25S
DOYLESTOWN     FAIR      76  60  57 S10G18    30.22S
WILLOW GROVE   NOT AVBL
NORTH PHILA    FAIR      78  61  55 SW14      30.25S
PHILADELPHIA   FAIR      74  60  61 SW12      30.25S
$$



USA.gov is the U.S. government's official web portal to all federal, state and local government web resources and services.